DW2781 Weather Reports


Display with metric or nautical units.
time (UTC)temp
F
wind
direction
speed
MPH
gust
MPH
rain 1hr
in
rain 24hr
in
rain mn
in
humidity
%
barometer
mb
20260510033505 75 88 5.0 13.0 0.00 0.01 0.01 53 1010.3
20260510033005 75 99 8.0 16.0 0.00 0.01 0.01 53 1009.6
20260510032505 75 102 9.0 17.0 0.00 0.01 0.01 53 1008.8
20260510032005 75 106 9.0 17.0 0.00 0.01 0.01 53 1008.4
20260510031505 75 107 8.0 14.0 0.00 0.01 0.01 53 1008.3
20260510031005 75 106 8.0 14.0 0.00 0.01 0.01 53 1008.2
20260510030505 76 108 9.0 14.0 0.00 0.01 0.01 53 1008.0
20260510030005 76 110 8.0 20.0 0.00 0.01 0.01 53 1008.0
20260510025505 76 113 8.0 20.0 0.00 0.01 0.01 53 1008.2
20260510025005 76 115 7.0 13.0 0.00 0.01 0.01 53 1008.4
20260510024505 76 117 6.0 13.0 0.00 0.01 0.01 52 1008.6
20260510024005 76 116 6.0 12.0 0.00 0.01 0.01 52 1008.6
20260510023505 76 115 6.0 12.0 0.00 0.01 0.01 52 1008.5
20260510023005 76 118 5.0 10.0 0.00 0.01 0.01 52 1008.5
20260510022505 76 117 4.0 10.0 0.00 0.01 0.01 51 1008.3
20260510022005 76 119 4.0 10.0 0.00 0.01 0.01 51 1008.4
20260510021505 77 120 4.0 10.0 0.00 0.01 0.01 51 1008.4
20260510021005 77 119 4.0 9.0 0.00 0.01 0.01 50 1008.0
20260510020505 77 119 3.0 10.0 0.00 0.01 0.01 50 1007.9
20260510020005 77 120 3.0 10.0 0.00 0.01 0.01 49 1007.7
20260510015526 77 127 3.0 9.0 0.00 0.01 0.01 49 1007.3
20260510015005 77 139 3.0 9.0 0.00 0.01 0.01 49 1006.9
20260510014505 78 147 3.0 8.0 0.00 0.01 0.01 48 1006.9
20260510014005 78 152 2.0 8.0 0.00 0.01 0.01 47 1006.8
20260510013526 78 149 2.0 6.0 0.00 0.01 0.01 47 1006.7
20260510013005 78 127 2.0 7.0 0.00 0.01 0.01 46 1006.8
20260510012505 78 124 2.0 7.0 0.00 0.01 0.01 46 1006.8
20260510012026 79 142 2.0 7.0 0.00 0.01 0.01 45 1006.9
20260510011505 79 155 2.0 7.0 0.00 0.01 0.01 45 1007.0
20260510011026 79 149 2.0 6.0 0.00 0.01 0.01 45 1006.8
20260510010505 80 150 2.0 6.0 0.00 0.01 0.01 45 1006.7
20260510010005 80 149 2.0 8.0 0.00 0.01 0.01 44 1006.8
20260510005505 80 149 3.0 11.0 0.00 0.01 0.01 44 1006.9
20260510005005 80 152 3.0 11.0 0.00 0.01 0.01 44 1006.9
20260510004505 81 157 2.0 8.0 0.00 0.01 0.01 44 1007.0
20260510004005 81 157 3.0 12.0 0.00 0.01 0.01 44 1007.2
20260510003526 81 141 2.0 12.0 0.00 0.01 0.01 44 1007.2
20260510003005 82 120 4.0 11.0 0.00 0.01 0.01 44 1007.0
20260510002504 82 119 5.0 11.0 0.00 0.01 0.01 43 1006.8
20260510002005 83 123 4.0 12.0 0.00 0.01 0.01 44 1006.9
20260510001505 83 133 4.0 12.0 0.00 0.01 0.01 43 1006.9
20260510001004 84 153 5.0 12.0 0.00 0.01 0.01 42 1007.0
20260510000504 84 156 5.0 12.0 0.00 0.01 0.01 40 1007.1
20260510000005 85 149 4.0 11.0 0.00 0.01 0.01 39 1007.0
20260509235505 86 153 4.0 11.0 0.00 0.01 0.01 38 1006.9
20260509235005 87 153 5.0 17.0 0.00 0.01 0.01 36 1006.9
20260509234505 88 152 6.0 17.0 0.00 0.01 0.01 35 1007.0
20260509234005 89 138 6.0 14.0 0.00 0.01 0.01 33 1007.1
20260509233525 90 133 6.0 13.0 0.00 0.01 0.01 33 1007.2
20260509233004 90 155 6.0 15.0 0.00 0.01 0.01 34 1007.0
20260509232526 90 159 6.0 15.0 0.00 0.01 0.01 33 1007.0
20260509232004 90 156 7.0 16.0 0.00 0.01 0.01 34 1007.2
20260509231504 90 148 7.0 16.0 0.00 0.01 0.01 35 1007.2
20260509231005 90 147 6.0 12.0 0.00 0.01 0.01 35 1007.3
20260509230505 90 153 6.0 12.0 0.00 0.01 0.01 35 1007.2
20260509230005 90 134 6.0 12.0 0.00 0.01 0.01 35 1007.3
20260509225505 91 128 6.0 13.0 0.00 0.01 0.01 33 1007.3
20260509225026 91 136 5.0 13.0 0.00 0.07 0.01 33 1007.3
20260509224505 92 128 5.0 14.0 0.00 0.32 0.01 33 1007.4
20260509224025 92 116 6.0 14.0 0.00 0.32 0.01 33 1007.5
20260509223526 92 113 6.0 12.0 0.00 0.32 0.01 33 1007.5
20260509223005 92 118 5.0 12.0 0.00 0.32 0.01 33 1007.7
20260509222504 92 138 4.0 11.0 0.00 0.32 0.01 33 1007.8
20260509222005 92 144 5.0 11.0 0.00 0.32 0.01 33 1007.8
20260509221505 92 127 6.0 13.0 0.00 0.32 0.01 32 1007.8
20260509221004 93 114 4.0 13.0 0.00 0.32 0.01 32 1008.0
20260509220505 93 128 4.0 10.0 0.00 0.32 0.01 33 1007.9
20260509220004 93 141 4.0 8.0 0.00 0.32 0.01 33 1008.0
20260509215504 92 125 5.0 12.0 0.00 0.32 0.01 34 1008.0
20260509215004 92 103 7.0 12.0 0.00 0.32 0.01 34 1008.0
20260509214504 92 97 8.0 14.0 0.00 0.32 0.01 34 1008.0
20260509214004 92 102 7.0 14.0 0.00 0.32 0.01 35 1008.0
20260509213504 92 126 6.0 12.0 0.00 0.32 0.01 33 1008.0
20260509213026 92 147 4.0 13.0 0.00 0.32 0.01 35 1008.0
20260509212505 92 148 4.0 14.0 0.00 0.32 0.01 34 1008.1
20260509212005 92 146 4.0 14.0 0.00 0.32 0.01 33 1008.2
20260509211505 92 127 5.0 11.0 0.00 0.32 0.01 33 1008.3
20260509211004 92 132 5.0 11.0 0.00 0.32 0.01 34 1008.3
20260509210526 92 148 3.0 9.0 0.00 0.32 0.01 36 1008.3
20260509210026 92 110 5.0 14.0 0.00 0.32 0.01 36 1008.4
20260509205526 93 96 6.0 14.0 0.00 0.32 0.01 34 1008.4
20260509205005 93 99 5.0 10.0 0.00 0.32 0.01 33 1008.5
20260509204505 93 110 5.0 11.0 0.00 0.32 0.01 34 1008.5
20260509204005 92 94 7.0 14.0 0.00 0.32 0.01 33 1008.6
20260509203505 92 87 7.0 14.0 0.00 0.32 0.01 34 1008.6
20260509203005 92 101 5.0 14.0 0.00 0.32 0.01 34 1008.7
20260509202505 92 121 2.0 9.0 0.00 0.32 0.01 33 1008.7
20260509202005 92 121 3.0 10.0 0.00 0.32 0.01 31 1008.8
20260509201505 92 136 4.0 10.0 0.00 0.32 0.01 32 1008.9
20260509201005 92 177 2.0 7.0 0.00 0.32 0.01 35 1008.8
20260509200505 92 123 2.0 10.0 0.00 0.32 0.01 33 1008.9
20260509200005 92 85 2.0 10.0 0.00 0.32 0.01 31 1009.1
20260509195505 92 103 3.0 10.0 0.00 0.32 0.01 34 1009.2
20260509195005 92 101 4.0 10.0 0.00 0.32 0.01 34 1009.2
20260509194505 92 97 5.0 10.0 0.00 0.32 0.01 36 1009.2
20260509194005 92 99 5.0 14.0 0.00 0.32 0.01 34 1009.3
20260509193526 91 94 5.0 14.0 0.00 0.32 0.01 33 1009.4
20260509193005 91 90 2.0 9.0 0.00 0.32 0.01 35 1009.4
20260509192505 90 76 2.0 8.0 0.00 0.32 0.01 37 1009.4
20260509192026 90 71 3.0 11.0 0.00 0.32 0.01 34 1009.4
20260509191504 90 82 6.0 13.0 0.00 0.32 0.01 37 1009.6
20260509191004 90 84 7.0 13.0 0.00 0.32 0.01 36 1009.6
20260509190504 90 84 6.0 11.0 0.00 0.32 0.01 36 1009.7
20260509190004 89 97 6.0 11.0 0.00 0.32 0.01 36 1009.7
20260509185525 89 136 5.0 11.0 0.00 0.32 0.01 35 1009.8
20260509185025 89 145 4.0 9.0 0.00 0.32 0.01 34 1009.9
20260509184504 89 119 1.0 7.0 0.00 0.32 0.01 37 1009.9
20260509184004 88 124 0.0 3.0 0.00 0.32 0.01 35 1010.0
20260509183504 88 161 1.0 6.0 0.00 0.32 0.01 40 1010.0
20260509183004 88 175 2.0 9.0 0.00 0.32 0.01 40 1010.1
20260509182504 87 169 3.0 9.0 0.00 0.32 0.01 36 1010.1
20260509182004 87 166 4.0 9.0 0.00 0.32 0.01 37 1010.2
20260509181504 87 177 4.0 11.0 0.00 0.32 0.01 39 1010.2
20260509181025 86 188 3.0 11.0 0.00 0.32 0.01 38 1010.3
20260509180504 86 207 3.0 10.0 0.00 0.32 0.01 40 1010.4
20260509180025 86 191 3.0 10.0 0.00 0.32 0.01 42 1010.4
20260509175504 86 164 4.0 12.0 0.00 0.32 0.01 44 1010.6
20260509175004 86 166 5.0 12.0 0.00 0.32 0.01 42 1010.7
20260509174504 86 169 3.0 10.0 0.00 0.32 0.01 44 1010.7
20260509174004 85 228 2.0 9.0 0.00 0.32 0.01 42 1010.8
20260509173504 85 245 3.0 9.0 0.00 0.32 0.01 41 1010.8
20260509173004 85 237 3.0 8.0 0.00 0.32 0.01 40 1010.9
20260509172504 84 173 1.0 6.0 0.00 0.32 0.01 44 1010.9
20260509172004 84 103 1.0 10.0 0.00 0.32 0.01 45 1011.1
20260509171505 84 97 3.0 10.0 0.00 0.32 0.01 47 1011.0
20260509171004 83 125 3.0 8.0 0.00 0.32 0.01 52 1011.1
20260509170504 83 176 3.0 9.0 0.00 0.32 0.01 52 1011.1
20260509170004 82 163 3.0 9.0 0.00 0.32 0.01 55 1011.2
20260509165526 82 137 3.0 8.0 0.00 0.32 0.01 58 1011.3
20260509165004 81 120 4.0 9.0 0.00 0.32 0.01 55 1011.2
20260509164505 81 116 3.0 9.0 0.00 0.32 0.01 55 1011.2
20260509164004 80 95 3.0 9.0 0.00 0.32 0.01 59 1011.1
20260509163504 80 97 5.0 10.0 0.00 0.32 0.01 56 1011.4
20260509163025 79 119 5.0 10.0 0.00 0.32 0.01 57 1011.4
20260509162505 78 141 3.0 9.0 0.00 0.32 0.01 60 1011.5
20260509162026 78 127 2.0 9.0 0.00 0.32 0.01 62 1011.4
20260509161505 77 118 2.0 8.0 0.00 0.32 0.01 66 1011.5
20260509161005 76 138 2.0 9.0 0.00 0.32 0.01 65 1011.6
20260509160505 75 128 3.0 9.0 0.00 0.32 0.01 68 1011.6
20260509160026 75 117 3.0 9.0 0.00 0.32 0.01 69 1011.5
20260509155504 74 124 2.0 9.0 0.00 0.32 0.01 70 1011.4
20260509155005 74 125 2.0 9.0 0.00 0.32 0.01 69 1011.3
20260509154505 73 129 1.0 7.0 0.00 0.32 0.01 72 1011.3
20260509154005 73 163 1.0 5.0 0.00 0.32 0.01 71 1011.3
20260509153504 72 171 1.0 5.0 0.00 0.32 0.01 73 1011.5
20260509153004 72 163 1.0 4.0 0.00 0.32 0.01 73 1011.2
20260509152504 72 126 1.0 4.0 0.00 0.32 0.01 74 1011.3
20260509152004 72 112 2.0 4.0 0.00 0.32 0.01 76 1011.1
20260509151504 72 111 1.0 3.0 0.00 0.32 0.01 76 1011.2
20260509151004 71 125 0.0 3.0 0.00 0.32 0.01 78 1011.3
20260509150504 71 128 0.0 2.0 0.00 0.32 0.01 82 1011.3
20260509150004 70 112 1.0 4.0 0.00 0.32 0.01 85 1011.2
20260509145504 69 105 2.0 7.0 0.00 0.32 0.01 89 1011.3
20260509145004 68 107 3.0 7.0 0.00 0.32 0.01 90 1011.1
20260509144504 68 109 2.0 7.0 0.00 0.32 0.01 91 1011.0
20260509144004 67 100 2.0 6.0 0.00 0.32 0.01 92 1011.0
20260509143504 66 72 1.0 4.0 0.00 0.32 0.01 93 1011.1
20260509143004 66 47 0.0 3.0 0.00 0.32 0.01 93 1011.2
20260509142504 65 0 0.0 0.0 0.00 0.32 0.01 93 1011.2
20260509142004 65 0 0.0 0.0 0.00 0.32 0.01 93 1011.3
20260509141504 64 0 0.0 0.0 0.00 0.32 0.01 94 1011.4
20260509141004 64 0 0.0 0.0 0.00 0.32 0.01 94 1011.4
20260509140525 63 0 0.0 0.0 0.00 0.32 0.01 93 1011.3
20260509140005 63 0 0.0 0.0 0.00 0.32 0.01 94 1011.3
20260509135504 62 0 0.0 0.0 0.00 0.32 0.01 94 1011.2
20260509135004 62 0 0.0 0.0 0.00 0.32 0.01 94 1011.2
20260509134504 61 0 0.0 0.0 0.00 0.32 0.01 94 1011.1
20260509134025 60 0 0.0 0.0 0.00 0.32 0.01 93 1011.1
20260509133525 60 0 0.0 0.0 0.00 0.32 0.01 93 1011.0
20260509133004 60 0 0.0 0.0 0.00 0.32 0.01 94 1010.9
20260509132504 59 0 0.0 0.0 0.00 0.32 0.01 94 1011.0
20260509132004 58 0 0.0 0.0 0.00 0.32 0.01 93 1011.0
20260509131525 57 0 0.0 0.0 0.00 0.32 0.01 93 1010.8
20260509131025 57 0 0.0 0.0 0.00 0.32 0.01 92 1010.8
20260509130525 57 0 0.0 0.0 0.00 0.32 0.01 92 1010.7
20260509130004 57 0 0.0 0.0 0.00 0.32 0.01 92 1010.6
20260509125504 56 0 0.0 0.0 0.00 0.32 0.01 92 1010.6
20260509125004 56 0 0.0 0.0 0.00 0.32 0.01 92 1010.6
20260509124504 56 158 0.0 2.0 0.00 0.32 0.01 92 1010.5
20260509124004 56 157 0.0 2.0 0.00 0.32 0.01 92 1010.4
20260509123504 56 153 0.0 2.0 0.00 0.32 0.01 92 1010.4
20260509123004 56 0 0.0 0.0 0.00 0.32 0.01 91 1010.4
20260509122504 56 0 0.0 0.0 0.00 0.32 0.01 91 1010.2
20260509122025 55 0 0.0 0.0 0.00 0.32 0.01 91 1010.2
20260509121504 55 0 0.0 0.0 0.00 0.32 0.01 91 1010.2
20260509121004 55 0 0.0 0.0 0.00 0.32 0.01 91 1010.2
20260509120504 55 0 0.0 0.0 0.00 0.32 0.01 91 1010.1
20260509120004 55 0 0.0 0.0 0.00 0.32 0.01 91 1010.1
20260509115504 55 0 0.0 0.0 0.00 0.32 0.01 90 1010.0
20260509115025 55 0 0.0 0.0 0.00 0.32 0.01 90 1010.0
20260509114504 55 0 0.0 0.0 0.00 0.32 0.01 90 1010.0
20260509114004 55 0 0.0 0.0 0.00 0.32 0.01 90 1010.0
20260509113504 55 0 0.0 0.0 0.00 0.32 0.01 90 1009.9
20260509113004 55 0 0.0 0.0 0.00 0.32 0.01 90 1009.8
20260509112504 55 0 0.0 0.0 0.00 0.32 0.01 90 1009.7
20260509112005 55 0 0.0 0.0 0.00 0.32 0.01 90 1009.7
20260509111505 55 0 0.0 0.0 0.00 0.32 0.01 90 1009.6
20260509111004 55 0 0.0 0.0 0.00 0.32 0.01 89 1009.5
20260509110504 55 0 0.0 0.0 0.00 0.32 0.01 89 1009.5
20260509110004 56 0 0.0 0.0 0.00 0.32 0.01 90 1009.5
20260509105503 56 0 0.0 0.0 0.00 0.32 0.01 90 1009.6
20260509105025 56 0 0.0 0.0 0.00 0.32 0.01 89 1009.6
20260509104503 56 0 0.0 0.0 0.00 0.32 0.01 89 1009.6
20260509104004 56 0 0.0 0.0 0.00 0.32 0.01 89 1009.6
20260509103503 56 0 0.0 0.0 0.00 0.32 0.01 90 1009.6
20260509103025 56 0 0.0 0.0 0.00 0.32 0.01 90 1009.7
20260509102504 57 0 0.0 0.0 0.00 0.32 0.01 90 1009.7
20260509102003 57 0 0.0 0.0 0.00 0.32 0.01 90 1009.7
20260509101504 57 0 0.0 0.0 0.00 0.32 0.01 90 1009.8
20260509101004 57 0 0.0 0.0 0.00 0.32 0.01 90 1009.9
20260509100525 57 0 0.0 0.0 0.00 0.32 0.01 90 1010.0
20260509100005 57 0 0.0 0.0 0.00 0.32 0.01 90 1010.1
20260509095504 57 0 0.0 0.0 0.00 0.32 0.01 90 1010.0
20260509095025 57 0 0.0 0.0 0.00 0.32 0.01 90 1010.2
20260509094504 57 0 0.0 0.0 0.00 0.32 0.01 89 1010.2
20260509094025 57 0 0.0 0.0 0.00 0.32 0.01 89 1010.3
20260509093504 58 0 0.0 0.0 0.00 0.32 0.01 89 1010.3
20260509093004 58 0 0.0 0.0 0.00 0.32 0.01 89 1010.3
20260509092525 58 0 0.0 0.0 0.00 0.32 0.01 89 1010.2
20260509092004 58 0 0.0 0.0 0.00 0.32 0.01 89 1010.2
20260509091504 58 0 0.0 0.0 0.00 0.32 0.01 89 1010.2
20260509091004 58 0 0.0 1.0 0.00 0.32 0.01 89 1010.1
20260509090504 58 0 0.0 1.0 0.00 0.32 0.01 89 1010.2
20260509090004 58 0 0.0 0.0 0.00 0.32 0.01 89 1010.3
20260509085504 58 0 0.0 0.0 0.00 0.32 0.01 88 1010.4
20260509085026 58 0 0.0 0.0 0.01 0.32 0.01 88 1010.4
20260509084525 58 0 0.0 0.0 0.01 0.32 0.01 88 1010.2
20260509084004 58 0 0.0 0.0 0.01 0.32 0.01 88 1010.1
20260509083504 58 0 0.0 0.0 0.01 0.32 0.01 88 1010.1
20260509083004 58 0 0.0 0.0 0.01 0.32 0.01 88 1010.0
20260509082504 58 0 0.0 0.0 0.01 0.32 0.01 88 1010.0
20260509082004 58 0 0.0 0.0 0.01 0.32 0.01 88 1010.0
20260509081504 58 0 0.0 0.0 0.01 0.32 0.01 88 1010.1
20260509081025 59 0 0.0 0.0 0.01 0.32 0.01 88 1010.0
20260509080503 59 0 0.0 0.0 0.01 0.32 0.01 88 1010.1
20260509080004 59 0 0.0 0.0 0.01 0.32 0.01 88 1010.3
20260509075503 59 0 0.0 0.0 0.01 0.32 0.01 88 1010.4
20260509075004 59 0 0.0 0.0 0.00 0.31 0.00 88 1010.5
20260509074503 59 0 0.0 0.0 0.00 0.31 0.00 88 1010.6
20260509074004 59 0 0.0 0.0 0.00 0.31 0.00 88 1010.6
20260509073504 60 0 0.0 0.0 0.00 0.31 0.00 88 1010.7
20260509073004 60 0 0.0 0.0 0.00 0.31 0.00 88 1010.9
20260509072504 60 103 0.0 2.0 0.00 0.31 0.00 88 1010.7
20260509072004 60 103 0.0 2.0 0.00 0.31 0.00 88 1010.7
20260509071504 60 113 0.0 2.0 0.00 0.31 0.00 87 1010.7
20260509071003 60 113 0.0 2.0 0.00 0.31 0.00 88 1010.8
20260509070504 60 0 0.0 0.0 0.00 0.31 0.00 88 1010.8
20260509070004 60 0 0.0 0.0 0.00 0.31 0.00 87 1010.8
20260509065504 60 116 0.0 2.0 0.00 0.31 0.00 87 1010.8
20260509065004 60 115 0.0 2.0 0.00 0.31 0.00 87 1010.7
20260509064504 60 111 0.0 2.0 0.00 0.31 0.00 87 1010.6
20260509064004 61 111 0.0 2.0 0.00 0.31 0.00 87 1010.6
20260509063504 61 0 0.0 0.0 0.00 0.31 0.00 87 1010.5
20260509063025 61 0 0.0 0.0 0.00 0.31 0.00 87 1010.7
20260509062504 61 0 0.0 0.0 0.00 0.31 0.00 87 1010.8
20260509062004 61 0 0.0 0.0 0.00 0.31 0.00 87 1010.9
20260509061504 61 0 0.0 0.0 0.00 0.31 0.00 87 1011.0
20260509061004 61 109 0.0 1.0 0.00 0.31 0.00 87 1011.0
20260509060504 62 109 0.0 1.0 0.00 0.31 0.00 87 1011.0
20260509060004 62 0 0.0 0.0 0.00 0.31 0.00 87 1011.0
20260509055504 62 108 0.0 2.0 0.00 0.31 0.00 87 1010.8
20260509055004 62 109 0.0 2.0 0.00 0.31 0.00 87 1010.7
20260509054504 62 110 1.0 3.0 0.00 0.31 0.00 87 1010.7
20260509054025 62 108 1.0 4.0 0.00 0.31 0.00 87 1010.7
20260509053525 62 106 2.0 4.0 0.00 0.31 0.00 87 1010.7
20260509053004 62 102 1.0 6.0 0.00 0.31 0.00 87 1010.6
20260509052504 62 102 1.0 6.0 0.00 0.31 0.00 87 1010.7
20260509052004 62 101 1.0 4.0 0.00 0.31 0.00 87 1010.8
20260509051525 62 99 0.0 7.0 0.00 0.31 0.00 87 1010.8
20260509051004 63 96 1.0 7.0 0.00 0.31 0.00 87 1010.8
20260509050504 63 98 3.0 8.0 0.00 0.31 0.00 87 1010.7
20260509050004 63 100 4.0 8.0 0.00 0.31 0.00 87 1010.8
20260509045504 63 102 3.0 8.0 0.00 0.31 0.31 87 1010.8
20260509045004 63 100 4.0 9.0 0.00 0.31 0.31 87 1010.8
20260509044504 63 93 4.0 10.0 0.00 0.31 0.31 87 1010.9
20260509044004 63 83 2.0 10.0 0.00 0.31 0.31 87 1010.8
20260509043504 63 78 1.0 6.0 0.00 0.31 0.31 86 1010.8
20260509043024 63 105 1.0 4.0 0.00 0.31 0.31 86 1010.9
20260509042503 63 103 1.0 4.0 0.00 0.31 0.31 86 1011.0
20260509042004 63 107 1.0 3.0 0.00 0.31 0.31 86 1010.8
20260509041503 64 109 1.0 3.0 0.00 0.31 0.31 86 1010.8
20260509041003 64 105 1.0 3.0 0.00 0.31 0.31 86 1010.7
20260509040503 64 95 1.0 3.0 0.00 0.31 0.31 86 1010.6
20260509040004 64 92 2.0 4.0 0.00 0.31 0.31 86 1010.4
20260509035524 64 94 2.0 4.0 0.00 0.31 0.31 85 1010.3
20260509035003 64 104 2.0 8.0 0.00 0.31 0.31 85 1010.4
20260509034503 64 106 2.0 8.0 0.00 0.31 0.31 84 1010.3
20260509034003 64 105 1.0 7.0 0.00 0.31 0.31 84 1010.2